| time (UTC) | temp C | wind direction | speed KPH | gust KPH | rain 1hr cm | rain 24hr cm | rain mn cm | humidity % | barometer mb |
| 20260906005958 | 15 | 331 | 8.0 | 17.7 | 0.00 | 0.00 | 0.00 | 80 | 1023.0 |
| 20260906004957 | 15 | 331 | 8.0 | 17.7 | 0.00 | 0.00 | 0.00 | 80 | 1023.0 |
| 20260906003957 | 15 | 331 | 8.0 | 17.7 | 0.00 | 0.00 | 0.00 | 80 | 1023.0 |
| 20260906002956 | 15 | 331 | 8.0 | 17.7 | 0.00 | 0.00 | 0.00 | 80 | 1023.0 |
| 20260906001956 | 15 | 331 | 8.0 | 17.7 | 0.00 | 0.00 | 0.00 | 80 | 1023.0 |
| 20260906000955 | 15 | 331 | 8.0 | 17.7 | 0.00 | 0.00 | 0.00 | 80 | 1023.0 |
| 20260905235955 | 15 | 331 | 8.0 | 17.7 | 0.00 | 0.00 | 0.00 | 80 | 1023.0 |
| 20260905234954 | 15 | 331 | 8.0 | 17.7 | 0.00 | 0.00 | 0.00 | 80 | 1023.0 |
| 20260905233954 | 15 | 331 | 8.0 | 17.7 | 0.00 | 0.00 | 0.00 | 80 | 1022.0 |
| 20260905232953 | 15 | 331 | 8.0 | 17.7 | 0.00 | 0.00 | 0.00 | 80 | 1022.0 |
| 20260905231953 | 15 | 331 | 8.0 | 17.7 | 0.00 | 0.00 | 0.00 | 81 | 1022.0 |
| 20260905230952 | 15 | 331 | 8.0 | 17.7 | 0.00 | 0.00 | 0.00 | 81 | 1022.0 |
| 20260905225952 | 15 | 331 | 8.0 | 17.7 | 0.00 | 0.00 | 0.00 | 81 | 1022.0 |
| 20260905224951 | 15 | 331 | 8.0 | 17.7 | 0.00 | 0.00 | 0.00 | 81 | 1022.0 |
| 20260905223951 | 15 | 331 | 8.0 | 17.7 | 0.00 | 0.00 | 0.00 | 81 | 1022.0 |
| 20260905222950 | 15 | 331 | 8.0 | 17.7 | 0.00 | 0.00 | 0.00 | 81 | 1022.0 |
| 20260905221950 | 16 | 331 | 8.0 | 17.7 | 0.00 | 0.00 | 0.00 | 80 | 1022.0 |
| 20260905220948 | 16 | 331 | 8.0 | 17.7 | 0.00 | 0.00 | 0.00 | 80 | 1022.0 |
| 20260905215947 | 16 | 331 | 8.0 | 17.7 | 0.00 | 0.00 | 0.00 | 80 | 1022.0 |
| 20260905214947 | 16 | 331 | 8.0 | 17.7 | 0.00 | 0.00 | 0.00 | 80 | 1022.0 |
| 20260905213947 | 16 | 331 | 8.0 | 17.7 | 0.00 | 0.00 | 0.00 | 80 | 1022.0 |
| 20260905212946 | 16 | 331 | 8.0 | 17.7 | 0.00 | 0.00 | 0.00 | 80 | 1021.0 |
| 20260905211946 | 16 | 331 | 8.0 | 17.7 | 0.00 | 0.00 | 0.00 | 79 | 1021.0 |
| 20260905210945 | 16 | 331 | 8.0 | 17.7 | 0.00 | 0.00 | 0.00 | 79 | 1021.0 |
| 20260905205945 | 16 | 331 | 8.0 | 17.7 | 0.00 | 0.00 | 0.00 | 78 | 1021.0 |
| 20260905204944 | 16 | 331 | 8.0 | 17.7 | 0.00 | 0.00 | 0.00 | 78 | 1021.0 |
| 20260905203944 | 16 | 331 | 8.0 | 17.7 | 0.00 | 0.00 | 0.00 | 78 | 1021.0 |
| 20260905202944 | 16 | 331 | 8.0 | 17.7 | 0.00 | 0.00 | 0.00 | 77 | 1021.0 |
| 20260905201943 | 17 | 331 | 8.0 | 17.7 | 0.00 | 0.00 | 0.00 | 76 | 1021.0 |
| 20260905200943 | 17 | 331 | 8.0 | 17.7 | 0.00 | 0.00 | 0.00 | 76 | 1021.0 |
| 20260905195942 | 17 | 331 | 8.0 | 17.7 | 0.00 | 0.00 | 0.00 | 76 | 1021.0 |
| 20260905194942 | 17 | 331 | 8.0 | 17.7 | 0.00 | 0.00 | 0.00 | 76 | 1021.0 |
| 20260905193941 | 17 | 331 | 8.0 | 17.7 | 0.00 | 0.00 | 0.00 | 76 | 1021.0 |
| 20260905192941 | 17 | 331 | 8.0 | 17.7 | 0.00 | 0.00 | 0.00 | 77 | 1020.0 |
| 20260905191941 | 17 | 331 | 8.0 | 17.7 | 0.00 | 0.00 | 0.00 | 77 | 1020.0 |
| 20260905190940 | 17 | 331 | 8.0 | 17.7 | 0.00 | 0.00 | 0.00 | 76 | 1020.0 |
| 20260905185940 | 17 | 331 | 8.0 | 17.7 | 0.00 | 0.00 | 0.00 | 75 | 1020.0 |
| 20260905184939 | 17 | 331 | 9.7 | 17.7 | 0.00 | 0.00 | 0.00 | 75 | 1020.0 |
| 20260905183939 | 21 | 354 | 12.9 | 33.8 | 0.00 | 0.00 | 0.00 | 50 | 1020.0 |
| 20260905182938 | 21 | 354 | 12.9 | 33.8 | 0.00 | 0.00 | 0.00 | 50 | 1019.0 |
| 20260905181938 | 21 | 354 | 12.9 | 33.8 | 0.00 | 0.00 | 0.00 | 50 | 1019.0 |
| 20260905180938 | 21 | 354 | 12.9 | 33.8 | 0.20 | 0.00 | 0.00 | 50 | 1019.0 |
| 20260905175937 | 21 | 354 | 12.9 | 33.8 | 0.15 | 0.00 | 0.00 | 50 | 1019.0 |
| 20260905174937 | 21 | 354 | 12.9 | 33.8 | 0.00 | 0.00 | 0.00 | 50 | 1019.0 |
| 20260905173936 | 23 | 331 | 29.0 | 38.6 | 0.00 | 0.00 | 0.00 | 41 | 1019.0 |
| 20260905172936 | 23 | 331 | 29.0 | 38.6 | 0.00 | 0.00 | 0.00 | 41 | 1019.0 |
| 20260905171935 | 23 | 331 | 29.0 | 38.6 | 0.00 | 0.00 | 0.00 | 41 | 1019.0 |
| 20260905170935 | 23 | 331 | 29.0 | 38.6 | 0.00 | 0.00 | 0.00 | 41 | 1019.0 |
| 20260905165934 | 23 | 331 | 29.0 | 38.6 | 0.00 | 0.00 | 0.00 | 41 | 1019.0 |
| 20260905164934 | 23 | 331 | 29.0 | 38.6 | 0.00 | 0.00 | 0.00 | 41 | 1019.0 |
| 20260905163933 | 23 | 331 | 29.0 | 38.6 | 0.00 | 0.00 | 0.00 | 41 | 1019.0 |
| 20260905162933 | 23 | 331 | 29.0 | 38.6 | 0.00 | 0.00 | 0.00 | 41 | 1019.0 |
| 20260905161933 | 24 | 331 | 29.0 | 38.6 | 0.00 | 0.00 | 0.00 | 40 | 1019.0 |
| 20260905160932 | 24 | 331 | 29.0 | 38.6 | 0.00 | 0.00 | 0.00 | 40 | 1019.0 |
| 20260905155932 | 25 | 331 | 29.0 | 38.6 | 0.00 | 0.00 | 0.00 | 39 | 1019.0 |
| 20260905154931 | 25 | 331 | 29.0 | 38.6 | 0.00 | 0.00 | 0.00 | 38 | 1019.0 |
| 20260905153931 | 26 | 331 | 29.0 | 38.6 | 0.00 | 0.00 | 0.00 | 37 | 1019.0 |
| 20260905152930 | 26 | 331 | 29.0 | 38.6 | 0.00 | 0.00 | 0.00 | 37 | 1019.0 |
| 20260905151930 | 26 | 331 | 29.0 | 38.6 | 0.00 | 0.00 | 0.00 | 37 | 1019.0 |
| 20260905150929 | 26 | 331 | 29.0 | 38.6 | 0.00 | 0.00 | 0.00 | 37 | 1019.0 |
| 20260905145929 | 27 | 331 | 29.0 | 38.6 | 0.00 | 0.00 | 0.00 | 37 | 1019.0 |
| 20260905144928 | 27 | 331 | 29.0 | 38.6 | 0.00 | 0.00 | 0.00 | 36 | 1019.0 |
| 20260905143927 | 27 | 331 | 29.0 | 38.6 | 0.00 | 0.00 | 0.00 | 36 | 1019.0 |
| 20260905142927 | 27 | 331 | 29.0 | 38.6 | 0.00 | 0.00 | 0.00 | 36 | 1018.0 |
| 20260905141927 | 28 | 331 | 29.0 | 38.6 | 0.00 | 0.00 | 0.00 | 35 | 1018.0 |
| 20260905140926 | 28 | 331 | 29.0 | 38.6 | 0.00 | 0.00 | 0.00 | 34 | 1018.0 |
| 20260905135926 | 28 | 331 | 29.0 | 38.6 | 0.00 | 0.00 | 0.00 | 34 | 1018.0 |
| 20260905134925 | 29 | 331 | 29.0 | 38.6 | 0.03 | 0.00 | 0.00 | 34 | 1018.0 |
| 20260905133925 | 31 | 332 | 16.1 | 20.9 | 0.00 | 0.00 | 0.00 | 39 | 1018.0 |
| 20260905132924 | 31 | 332 | 16.1 | 20.9 | 0.00 | 0.00 | 0.00 | 39 | 1018.0 |
| 20260905131924 | 31 | 332 | 16.1 | 20.9 | 0.00 | 0.00 | 0.00 | 39 | 1018.0 |
| 20260905130923 | 31 | 332 | 16.1 | 20.9 | 0.00 | 0.00 | 0.00 | 39 | 1018.0 |
| 20260905125923 | 31 | 332 | 16.1 | 20.9 | 0.00 | 0.00 | 0.00 | 39 | 1018.0 |
| 20260905124923 | 31 | 332 | 16.1 | 20.9 | 0.00 | 0.00 | 0.00 | 39 | 1018.0 |
| 20260905123922 | 31 | 332 | 16.1 | 20.9 | 0.00 | 0.00 | 0.00 | 39 | 1018.0 |
| 20260905122922 | 31 | 332 | 16.1 | 20.9 | 0.00 | 0.00 | 0.00 | 39 | 1017.0 |
| 20260905121921 | 31 | 332 | 16.1 | 20.9 | 0.00 | 0.00 | 0.00 | 39 | 1017.0 |
| 20260905120921 | 31 | 332 | 16.1 | 20.9 | 0.00 | 0.00 | 0.00 | 39 | 1017.0 |
| 20260905115920 | 31 | 332 | 16.1 | 20.9 | 0.00 | 0.00 | 0.00 | 39 | 1017.0 |
| 20260905114920 | 31 | 332 | 16.1 | 20.9 | 0.00 | 0.00 | 0.00 | 39 | 1017.0 |
| 20260905113920 | 31 | 332 | 16.1 | 20.9 | 0.00 | 0.00 | 0.00 | 39 | 1017.0 |
| 20260905112919 | 31 | 332 | 16.1 | 20.9 | 0.00 | 0.00 | 0.00 | 39 | 1016.0 |
| 20260905111919 | 31 | 332 | 16.1 | 20.9 | 0.00 | 0.00 | 0.00 | 39 | 1016.0 |
| 20260905110917 | 31 | 332 | 16.1 | 20.9 | 0.00 | 0.00 | 0.00 | 39 | 1016.0 |
| 20260905105916 | 31 | 332 | 16.1 | 20.9 | 0.00 | 0.00 | 0.00 | 38 | 1016.0 |
| 20260905104916 | 32 | 332 | 16.1 | 20.9 | 0.00 | 0.00 | 0.00 | 37 | 1016.0 |
| 20260905103916 | 32 | 332 | 16.1 | 20.9 | 0.00 | 0.00 | 0.00 | 37 | 1016.0 |
| 20260905102915 | 32 | 332 | 16.1 | 20.9 | 0.00 | 0.00 | 0.00 | 37 | 1016.0 |
| 20260905101914 | 32 | 332 | 16.1 | 20.9 | 0.00 | 0.00 | 0.00 | 37 | 1016.0 |
| 20260905100913 | 32 | 332 | 16.1 | 20.9 | 0.00 | 0.00 | 0.00 | 37 | 1016.0 |
| 20260905095913 | 32 | 332 | 16.1 | 20.9 | 0.00 | 0.00 | 0.00 | 37 | 1016.0 |
| 20260905094912 | 32 | 332 | 16.1 | 20.9 | 0.00 | 0.00 | 0.00 | 37 | 1016.0 |
| 20260905093912 | 32 | 332 | 16.1 | 20.9 | 0.00 | 0.00 | 0.00 | 37 | 1016.0 |
| 20260905092911 | 32 | 332 | 16.1 | 20.9 | 0.00 | 0.00 | 0.00 | 37 | 1016.0 |
| 20260905091911 | 32 | 332 | 16.1 | 20.9 | 0.00 | 0.00 | 0.00 | 37 | 1016.0 |
| 20260905090910 | 32 | 332 | 16.1 | 20.9 | 0.00 | 0.00 | 0.00 | 37 | 1016.0 |
| 20260905085910 | 32 | 332 | 16.1 | 20.9 | 0.00 | 0.00 | 0.00 | 37 | 1016.0 |
| 20260905084909 | 32 | 332 | 16.1 | 20.9 | 0.00 | 0.00 | 0.00 | 37 | 1016.0 |
| 20260905083909 | 29 | 306 | 12.9 | 17.7 | 0.00 | 0.00 | 0.00 | 43 | 1016.0 |
| 20260905082908 | 29 | 306 | 12.9 | 17.7 | 0.00 | 0.00 | 0.00 | 44 | 1016.0 |
| 20260905081907 | 29 | 306 | 12.9 | 17.7 | 0.00 | 0.00 | 0.00 | 44 | 1016.0 |
| 20260905080907 | 29 | 306 | 12.9 | 17.7 | 0.00 | 0.00 | 0.00 | 45 | 1016.0 |
| 20260905075907 | 29 | 306 | 12.9 | 17.7 | 0.00 | 0.00 | 0.00 | 45 | 1016.0 |
| 20260905074906 | 29 | 306 | 14.5 | 19.3 | 0.00 | 0.00 | 0.00 | 45 | 1015.0 |
| 20260905073906 | 26 | 273 | 16.1 | 22.5 | 0.00 | 0.00 | 0.00 | 47 | 1015.0 |
| 20260905072905 | 26 | 273 | 16.1 | 22.5 | 0.00 | 0.00 | 0.00 | 47 | 1015.0 |
| 20260905071905 | 26 | 273 | 16.1 | 22.5 | 0.00 | 0.00 | 0.00 | 47 | 1015.0 |
| 20260905070904 | 26 | 273 | 16.1 | 22.5 | 0.00 | 0.00 | 0.00 | 48 | 1015.0 |
| 20260905065904 | 26 | 273 | 16.1 | 22.5 | 0.00 | 0.00 | 0.00 | 48 | 1015.0 |
| 20260905064903 | 22 | 241 | 12.9 | 20.9 | 0.00 | 0.00 | 0.00 | 54 | 1015.0 |
| 20260905063903 | 22 | 241 | 12.9 | 20.9 | 0.00 | 0.00 | 0.00 | 54 | 1015.0 |
| 20260905062903 | 22 | 241 | 12.9 | 20.9 | 0.00 | 0.00 | 0.00 | 54 | 1015.0 |
| 20260905061902 | 22 | 241 | 12.9 | 20.9 | 0.00 | 0.00 | 0.00 | 55 | 1015.0 |
| 20260905060902 | 22 | 241 | 12.9 | 20.9 | 0.00 | 0.00 | 0.00 | 56 | 1015.0 |
| 20260905055901 | 22 | 241 | 12.9 | 20.9 | 0.00 | 0.00 | 0.00 | 57 | 1015.0 |
| 20260905054901 | 21 | 241 | 12.9 | 20.9 | 0.00 | 0.00 | 0.00 | 58 | 1015.0 |
| 20260905053901 | 17 | 305 | 20.9 | 27.4 | 0.00 | 0.00 | 0.00 | 62 | 1015.0 |
| 20260905052900 | 18 | 305 | 20.9 | 27.4 | 0.00 | 0.00 | 0.00 | 62 | 1015.0 |
| 20260905051900 | 18 | 305 | 20.9 | 27.4 | 0.00 | 0.00 | 0.00 | 63 | 1015.0 |
| 20260905050859 | 18 | 305 | 20.9 | 27.4 | 0.00 | 0.00 | 0.00 | 64 | 1015.0 |
| 20260905045859 | 18 | 305 | 20.9 | 27.4 | 0.00 | 0.00 | 0.00 | 65 | 1015.0 |
| 20260905044858 | 18 | 305 | 20.9 | 27.4 | 0.00 | 0.00 | 0.00 | 66 | 1015.0 |
| 20260905043858 | 18 | 305 | 20.9 | 27.4 | 0.00 | 0.00 | 0.00 | 66 | 1015.0 |
| 20260905042857 | 18 | 305 | 20.9 | 27.4 | 0.00 | 0.00 | 0.00 | 66 | 1015.0 |
| 20260905041857 | 18 | 305 | 20.9 | 27.4 | 0.00 | 0.00 | 0.00 | 66 | 1015.0 |
| 20260905040857 | 18 | 305 | 20.9 | 27.4 | 0.00 | 0.00 | 0.00 | 66 | 1015.0 |
| 20260905035856 | 18 | 305 | 20.9 | 27.4 | 0.00 | 0.00 | 0.00 | 65 | 1015.0 |
| 20260905034853 | 18 | 305 | 20.9 | 27.4 | 0.00 | 0.00 | 0.00 | 64 | 1015.0 |
| 20260905033853 | 18 | 305 | 20.9 | 27.4 | 0.00 | 0.00 | 0.00 | 64 | 1015.0 |
| 20260905032852 | 18 | 305 | 20.9 | 27.4 | 0.00 | 0.00 | 0.00 | 64 | 1015.0 |
| 20260905031851 | 18 | 305 | 20.9 | 27.4 | 0.00 | 0.00 | 0.00 | 64 | 1015.0 |
| 20260905030851 | 18 | 305 | 20.9 | 27.4 | 0.00 | 0.00 | 0.00 | 64 | 1015.0 |
| 20260905025851 | 18 | 305 | 20.9 | 27.4 | 0.00 | 0.00 | 0.00 | 64 | 1015.0 |
| 20260905024850 | 18 | 305 | 20.9 | 27.4 | 0.00 | 0.00 | 0.00 | 64 | 1015.0 |
| 20260905023850 | 19 | 305 | 20.9 | 27.4 | 0.00 | 0.00 | 0.00 | 63 | 1015.0 |
| 20260905022849 | 19 | 305 | 20.9 | 27.4 | 0.00 | 0.00 | 0.00 | 63 | 1015.0 |
| 20260905021848 | 19 | 305 | 20.9 | 27.4 | 0.00 | 0.00 | 0.00 | 63 | 1015.0 |
| 20260905020848 | 19 | 305 | 20.9 | 27.4 | 0.00 | 0.00 | 0.00 | 62 | 1015.0 |
| 20260905015848 | 20 | 305 | 20.9 | 27.4 | 0.00 | 0.00 | 0.00 | 61 | 1015.0 |
| 20260905014847 | 20 | 305 | 20.9 | 27.4 | 0.00 | 0.00 | 0.00 | 61 | 1015.0 |
| 20260905013847 | 20 | 305 | 20.9 | 27.4 | 0.00 | 0.00 | 0.00 | 60 | 1015.0 |
| 20260905012846 | 20 | 305 | 20.9 | 27.4 | 0.00 | 0.00 | 0.00 | 59 | 1015.0 |
| 20260905011846 | 20 | 305 | 20.9 | 27.4 | 0.00 | 0.00 | 0.00 | 58 | 1015.0 |
| 20260905010846 | 21 | 305 | 20.9 | 27.4 | 0.00 | 0.00 | 0.00 | 57 | 1015.0 |